Fulton, NY

4:12 AM EST on February 26, 2017 (GMT -0500)
Oswego County

Weather History for KFZY - October, 2012

Change the Weather History Date:

Sunday, October 14, 2012

  Actual Average (KSYR) Record (KSYR)
Temperature  
Mean Temperature 56 °F -  
Max Temperature 68 °F 61 °F 85 °F (1954)
Min Temperature 43 °F 42 °F 25 °F (1993)
Degree Days  
Heating Degree Days 10    
Growing Degree Days 6 (Base 50)    
Moisture  
Dew Point 50 °F    
Average Humidity 85    
Maximum Humidity 96    
Minimum Humidity 59    
Precipitation  
Precipitation 0.83 in - - ()
Sea Level Pressure  
Sea Level Pressure 29.90 in    
Wind  
Wind Speed 6 mph (SE)    
Max Wind Speed 17 mph    
Max Gust Speed 25 mph    
Visibility 7 miles    
Events Rain    
Averages and records for this station are not official NWS values.
T = Trace of Precipitation, MM = Missing Value Source: NWS Daily Summary

Daily Weather History Graph

Daily Weather History Graph

Search for Another Location

Airport or City:

Trip Planner

Search our weather history database for the weather conditions in past years. The results will help you decide how hot, cold, wet, or windy it might be!

Date:

Astronomy

Oct. 14, 2012 Rise Set
Actual Time 7:18 AM EDT 6:23 PM EDT
Civil Twilight 6:50 AM EDT 6:52 PM EDT
Nautical Twilight 6:16 AM EDT 7:25 PM EDT
Astronomical Twilight 5:43 AM EDT 7:58 PM EDT
Moon 6:14 AM EDT (10/14) 5:41 PM EDT (10/14)
Length of Visible Light 12h 02m
Length of Day
11h 04m
Waning Crescent, 1% of the Moon is Illuminated
Oct 14
Waning Crescent
Oct 15
New
Oct 21
First Quarter
Oct 29
Full
Nov 6
Last Quarter

Hourly Weather History & Observations

Time (EDT) Temp. Windchill Dew Point Humidity Pressure Visibility Wind Dir Wind Speed Gust Speed Precip Events Conditions
12:54 AM 43.0 °F 39.5 °F 41.0 °F 93% 30.04 in 3.0 mi ESE 5.8 mph - 0.15 in Rain Rain
1:54 AM 44.1 °F 40.1 °F 42.1 °F 93% 30.01 in 10.0 mi Variable 6.9 mph - 0.09 in Rain Light Rain
2:54 AM 45.0 °F 41.2 °F 42.1 °F 90% 29.98 in 10.0 mi SE 6.9 mph - 0.00 in Rain Light Rain
3:54 AM 46.0 °F 43.1 °F 43.0 °F 89% 29.94 in 10.0 mi Variable 5.8 mph - 0.06 in   Overcast
4:27 AM 46.4 °F 44.3 °F 44.6 °F 93% 29.94 in 3.0 mi Variable 4.6 mph - 0.08 in Rain Heavy Rain
4:35 AM 46.4 °F 43.5 °F 44.6 °F 93% 29.94 in 2.5 mi ESE 5.8 mph - 0.12 in Rain Heavy Rain
4:46 AM 46.4 °F 45.2 °F 44.6 °F 93% 29.94 in 5.0 mi ESE 3.5 mph - 0.13 in Rain Light Rain
4:54 AM 46.9 °F - 45.0 °F 93% 29.95 in 9.0 mi Variable 3.5 mph - 0.13 in Rain Light Rain
5:54 AM 48.9 °F - 46.9 °F 93% 29.95 in 6.0 mi Variable 4.6 mph - 0.03 in Rain Light Rain
6:54 AM 50.0 °F - 48.0 °F 93% 29.95 in 9.0 mi Variable 3.5 mph - 0.00 in   Overcast
7:54 AM 51.1 °F - 48.9 °F 92% 29.96 in 5.0 mi SE 4.6 mph - 0.02 in Rain Light Rain
8:54 AM 52.0 °F - 50.0 °F 93% 29.96 in 2.0 mi Variable 3.5 mph - 0.05 in Rain Rain
9:13 AM 51.8 °F - 50.0 °F 94% 29.95 in 4.0 mi Variable 3.5 mph - 0.02 in Rain Light Rain
9:39 AM 53.6 °F - 51.8 °F 94% 29.96 in 1.8 mi Variable 4.6 mph - 0.08 in Rain Rain
9:54 AM 53.1 °F - 52.0 °F 96% 29.96 in 1.5 mi Variable 4.6 mph - 0.17 in Rain Rain
10:17 AM 53.6 °F - 51.8 °F 94% 29.95 in 3.0 mi Variable 3.5 mph - 0.11 in Rain Light Rain
10:54 AM 55.0 °F - 53.1 °F 93% 29.95 in 8.0 mi SE 4.6 mph - 0.11 in   Overcast
11:04 AM 55.4 °F - 53.6 °F 94% 29.94 in 7.0 mi SSE 3.5 mph - 0.00 in Rain Light Rain
11:54 AM 57.0 °F - 54.0 °F 89% 29.94 in 10.0 mi SE 4.6 mph - 0.00 in Rain Light Rain
12:54 PM 59.0 °F - 55.9 °F 90% 29.92 in 10.0 mi SE 3.5 mph - N/A   Overcast
1:54 PM 64.0 °F - 57.9 °F 80% 29.88 in 10.0 mi SE 4.6 mph - 0.01 in   Clear
2:54 PM 66.9 °F - 59.0 °F 76% 29.84 in 10.0 mi Variable 4.6 mph - N/A   Clear
4:54 PM 66.0 °F - 57.0 °F 73% 29.78 in 10.0 mi SE 3.5 mph - N/A   Clear
5:54 PM 68.0 °F - 55.0 °F 63% 29.76 in 10.0 mi SSE 8.1 mph - N/A   Clear
7:54 PM 66.9 °F - 53.1 °F 61% 29.76 in 10.0 mi South 9.2 mph - N/A   Clear
8:54 PM 68.0 °F - 53.1 °F 59% 29.74 in 10.0 mi South 17.3 mph 24.2 mph N/A   Clear
9:54 PM 66.9 °F - 52.0 °F 59% 29.73 in 10.0 mi South 13.8 mph 25.3 mph 0.00 in   Scattered Clouds
10:54 PM 63.0 °F - 54.0 °F 72% 29.72 in 10.0 mi South 10.4 mph 19.6 mph 0.00 in Rain Light Rain
11:54 PM 62.1 °F - 54.0 °F 75% 29.69 in 10.0 mi SSE 8.1 mph - 0.01 in   Overcast